Wind_Speed
30 31 31 32 34 36 39 44 48 48 48 50 51 49 49 48 48 48 47 45 43 42 41 39 38 37 36 36 36 36 36 37 37 37 38 37 37 35 34 32 30 28 27 26 25 22 20 18 18 18 17 17 17 17 16 15 14 14 13 13 14 14 13
29 30 31 31 33 36 40 44 47 48 48 50 50 49 50 50 50 50 48 47 45 43 42 41 40 39 37 35 35 35 36 35 35 35 36 36 36 35 34 32 30 28 27 26 25 23 21 20 19 18 18 17 17 17 17 16 16 15 15 15 15 15 14
29 30 32 33 35 39 42 45 48 49 49 50 50 50 51 52 50 49 48 47 46 45 44 42 41 40 38 36 35 35 35 35 35 35 35 35 35 34 33 32 30 29 27 26 26 25 23 22 20 19 18 18 18 18 17 17 17 17 16 16 16 16 15
30 33 34 36 39 43 45 47 48 49 49 50 52 52 52 51 50 48 47 46 46 46 45 44 42 41 39 38 36 35 34 34 33 33 33 33 34 34 33 31 30 29 28 27 26 26 24 23 21 20 19 19 19 19 19 18 18 18 18 17 17 17 16
30 32 33 35 38 40 43 46 48 49 49 49 51 52 52 51 49 48 48 47 47 46 44 43 42 42 41 39 38 36 34 33 32 31 31 31 32 32 32 31 29 29 28 27 26 26 25 24 23 21 20 19 19 19 19 19 19 20 19 19 19 18 17
28 30 32 34 37 38 42 47 48 50 51 50 50 52 52 50 49 49 49 49 48 47 45 44 43 42 41 40 39 37 35 34 33 32 30 30 30 30 30 30 29 28 27 27 27 26 25 25 24 23 21 20 19 19 20 20 20 21 21 20 20 19 18
28 31 35 39 40 40 43 48 48 49 51 49 47 48 50 49 49 50 49 50 50 48 47 46 44 43 42 41 40 38 36 35 34 32 31 30 29 29 29 29 28 28 27 27 27 27 26 26 25 24 22 21 20 20 20 20 20 21 22 22 21 20 20
30 35 39 42 43 41 43 47 48 47 48 45 42 45 49 49 49 50 51 51 51 50 49 47 45 45 43 42 41 39 36 35 34 34 33 32 30 29 29 29 28 27 27 26 27 27 27 26 26 25 24 23 22 21 20 20 20 21 22 22 22 21 21
32 38 42 44 43 42 42 47 49 47 46 46 47 49 51 50 50 52 52 52 52 51 49 47 46 45 43 42 41 38 37 36 36 35 34 33 32 30 28 28 28 28 27 27 27 27 26 26 26 26 26 25 24 23 22 21 20 21 22 23 22 22 21
31 37 42 43 41 39 41 43 44 43 45 48 51 51 50 51 52 52 52 52 53 51 49 48 47 46 44 42 41 39 38 38 36 36 35 34 33 31 29 28 28 28 28 27 27 27 26 26 26 27 27 27 26 25 24 23 22 22 22 23 23 22 22
28 35 40 41 41 40 39 39 41 44 46 48 49 50 50 52 53 52 53 53 53 52 50 49 48 47 44 43 42 41 41 39 38 37 36 35 34 32 30 29 28 28 27 27 27 27 27 27 27 28 28 28 28 26 25 24 24 23 23 23 23 23 22
20 28 34 38 41 43 42 41 44 46 46 47 48 50 51 52 53 53 53 53 53 52 51 50 48 47 45 44 44 44 42 41 40 39 37 36 34 33 31 30 29 28 27 26 26 26 27 27 28 29 29 29 29 28 27 26 26 26 25 24 24 24 23
18 23 28 32 35 39 39 40 43 45 46 47 49 51 52 53 53 53 53 53 53 52 51 50 49 47 46 45 45 45 44 42 40 39 38 36 35 34 32 31 30 29 27 26 26 27 27 28 29 29 29 29 30 29 28 27 27 27 27 26 25 25 24
18 22 26 29 31 34 36 38 41 44 46 48 49 51 52 52 52 52 53 54 52 52 52 51 50 48 46 46 46 46 44 42 40 39 38 36 35 34 33 32 31 29 27 27 27 28 28 29 29 30 30 30 30 30 29 29 29 29 28 28 27 26 25
15 18 24 29 33 35 38 41 42 44 47 49 50 51 52 52 52 52 52 53 52 52 52 51 50 48 46 46 47 45 42 41 40 38 37 36 35 34 33 33 32 30 29 29 28 28 28 29 29 30 30 30 30 30 30 31 31 31 30 29 28 27 27
16 17 20 26 31 35 39 42 44 46 48 49 50 51 52 52 53 53 53 52 52 52 51 50 49 48 47 47 46 44 42 41 40 38 37 36 35 35 34 34 33 32 31 30 29 29 29 29 29 30 30 30 31 31 31 32 33 32 31 29 29 28 28
20 24 24 26 29 33 37 41 44 46 47 48 50 51 52 53 54 54 53 52 52 52 51 50 48 47 47 47 45 43 41 40 39 38 37 37 36 35 35 34 34 33 33 32 30 30 30 30 30 30 30 31 31 32 32 33 33 32 30 29 29 28 28
22 28 32 34 33 33 37 41 44 46 47 49 50 51 52 53 53 52 52 52 52 51 50 49 47 47 47 47 45 43 41 40 40 39 38 37 36 36 34 34 34 34 33 32 31 31 31 31 31 31 31 31 32 33 33 34 33 32 30 29 29 29 28
23 27 31 35 35 34 37 40 43 45 47 49 51 51 52 52 52 52 52 52 51 51 50 49 47 46 47 47 45 42 41 41 39 38 38 37 36 35 34 34 35 35 34 33 32 32 32 31 31 31 32 32 33 34 34 34 34 32 31 30 30 29 28
22 25 28 30 31 33 36 40 43 44 46 48 50 51 52 51 50 50 50 50 50 50 49 48 47 46 46 45 43 42 41 40 38 37 37 36 35 35 35 35 35 35 34 33 33 34 33 32 31 32 32 32 33 34 35 35 34 33 31 31 30 29 29
21 22 24 25 27 30 34 39 43 44 46 48 47 48 50 49 48 48 48 49 49 48 48 47 46 45 44 44 42 40 39 38 37 36 35 35 35 35 36 36 36 35 34 34 34 34 32 31 31 32 32 32 33 34 35 35 35 33 32 31 30 30 29
20 21 21 22 25 29 32 38 42 44 46 45 45 46 48 48 48 48 48 48 47 46 46 45 44 43 42 42 40 39 38 37 36 35 34 34 35 36 36 36 35 34 34 34 34 33 32 32 32 32 32 31 32 33 34 35 35 34 33 32 31 30 30
19 20 18 20 23 26 30 34 38 41 42 42 43 46 46 46 47 47 46 45 45 45 45 44 43 42 41 40 39 37 36 35 34 34 33 34 35 36 36 35 34 34 34 34 34 34 33 32 32 32 32 32 32 33 34 34 34 34 33 31 31 31 31
15 15 15 17 19 22 27 32 35 38 38 38 40 43 44 45 47 46 45 44 44 44 44 43 42 41 40 39 37 35 34 33 33 32 32 34 35 35 35 34 34 33 33 33 33 33 32 32 32 32 32 32 33 33 33 33 33 33 32 31 31 31 31
12 10 11 13 16 20 24 29 33 34 35 36 39 41 42 44 46 46 45 44 43 42 43 42 41 39 38 37 35 34 33 32 31 31 32 33 34 33 33 33 32 32 32 32 32 32 32 31 32 32 32 32 32 31 32 32 32 32 31 30 30 31 31
10 7 7 11 15 19 21 26 31 32 34 36 37 39 41 43 44 44 44 43 42 41 41 39 36 34 34 33 33 33 32 31 31 31 32 32 31 31 30 30 29 30 31 31 31 31 31 31 31 32 31 31 30 30 30 30 30 31 31 30 30 30 30
8 5 3 10 16 18 20 24 28 29 31 33 34 37 40 42 43 42 41 40 40 39 36 33 31 31 31 32 32 32 31 31 30 30 29 28 27 27 28 28 28 30 30 30 30 30 31 31 31 31 31 30 29 29 29 28 27 26 27 27 28 28 28
7 6 3 9 17 21 21 23 25 26 28 29 31 35 38 39 40 40 39 38 37 34 32 30 29 29 30 30 30 30 30 29 29 28 27 27 26 27 28 27 28 29 29 29 30 30 30 30 30 30 30 29 29 28 28 26 24 23 23 24 24 24 25
10 8 7 8 16 22 24 25 27 27 28 29 31 34 35 36 37 36 36 35 32 30 29 27 27 28 28 28 28 28 27 26 26 26 26 26 26 27 27 26 27 28 28 28 29 30 30 29 29 29 30 30 30 29 27 25 23 22 23 23 22 22 23
14 12 10 8 11 19 24 27 29 30 31 31 32 32 32 33 34 34 33 31 29 27 26 25 25 26 26 26 26 25 25 24 24 25 25 26 25 25 26 26 27 28 28 28 29 30 31 30 30 31 31 31 30 29 26 24 22 21 22 22 21 22 22
18 16 14 12 11 15 19 24 27 30 31 32 31 31 31 32 32 32 32 30 27 26 24 23 24 24 24 24 25 24 24 24 24 25 25 24 24 25 25 26 28 29 29 29 30 31 32 31 31 32 31 30 30 28 25 23 22 21 21 21 21 21 21
21 19 19 18 17 15 16 19 23 26 29 31 31 32 32 31 30 30 30 29 26 25 24 23 23 24 24 24 24 24 24 24 24 25 24 24 24 24 24 25 27 28 29 29 31 31 31 31 32 32 31 31 30 29 25 23 22 22 22 21 21 21 22
22 21 21 21 21 20 20 20 21 23 25 27 28 30 31 30 29 29 29 28 27 27 26 25 24 24 24 23 23 23 23 24 25 25 25 26 26 25 24 26 28 29 30 31 32 32 32 32 32 32 32 31 28 26 24 23 23 23 22 22 21 21 22
21 20 20 20 20 22 23 23 23 22 23 23 24 25 27 28 28 28 28 28 28 28 27 26 25 24 23 23 23 23 23 24 24 25 26 27 27 27 27 27 28 30 31 31 31 31 31 31 30 30 29 27 25 24 23 23 23 23 21 21 20 20 21
21 20 19 19 18 19 20 21 21 21 22 22 22 23 25 26 27 27 27 27 26 26 25 25 24 23 22 21 21 22 22 23 23 24 26 27 28 29 29 29 30 31 31 31 31 30 30 29 28 27 26 24 23 24 24 24 22 19 18 17 18 18 19
21 20 19 18 18 18 19 18 17 18 18 18 18 20 22 24 25 25 25 26 26 26 25 25 24 23 22 22 22 23 23 24 24 25 26 27 29 30 31 31 31 32 32 32 31 30 30 29 28 26 24 23 22 21 21 21 18 15 14 15 17 18 19
19 20 19 19 19 19 19 17 15 15 15 15 14 15 17 19 20 21 22 23 24 25 26 26 26 26 26 25 25 25 25 26 27 27 28 29 30 31 32 32 32 32 32 33 33 31 30 29 27 25 23 22 21 19 18 18 16 15 16 17 18 19 21
18 18 18 19 19 18 18 18 16 15 14 13 12 12 13 15 15 16 18 19 20 22 24 25 25 26 26 26 26 26 26 26 27 27 28 29 30 31 32 33 33 33 33 33 33 32 30 29 27 25 23 21 20 18 17 16 16 17 17 18 19 20 21
Wind_Direction
206 206 205 203 201 201 203 209 213 211 211 214 216 217 218 219 221 222 224 223 222 223 222 222 222 222 221 220 220 222 223 224 226 227 229 231 233 234 235 235 235 235 235 237 237 236 235 235 235 235 234 235 237 237 237 240 243 245 246 246 247 248 250
205 206 205 203 202 203 206 212 214 211 211 215 216 216 216 218 220 222 223 223 223 224 224 224 224 223 223 221 221 221 222 223 224 226 228 230 233 235 236 236 235 235 236 237 238 237 236 235 234 234 234 236 238 238 239 241 243 244 244 246 247 249 250
203 204 203 202 204 207 209 211 214 214 213 214 215 216 216 218 220 221 222 223 224 225 225 226 226 225 224 223 222 222 222 223 224 225 227 229 232 234 235 236 235 235 235 235 237 237 237 237 236 235 234 235 238 240 241 242 243 244 244 245 247 249 251
204 204 204 204 207 210 211 212 214 214 213 215 217 217 217 219 221 221 222 223 223 224 225 225 226 226 226 225 224 223 223 222 223 224 226 229 231 233 234 235 235 234 234 233 234 235 236 238 238 237 236 236 237 240 241 242 242 243 243 244 246 248 250
205 205 202 203 207 208 209 212 214 214 214 215 217 218 219 220 220 220 222 223 224 225 225 225 226 226 227 227 226 226 225 224 223 224 225 227 230 232 234 235 234 233 232 231 232 234 235 236 237 237 237 236 237 238 240 241 240 240 241 241 244 246 248
205 203 202 205 207 207 209 213 214 215 215 214 215 218 219 218 219 219 220 222 223 224 225 226 226 226 226 227 227 227 226 225 225 225 226 227 229 231 233 234 233 233 232 231 231 232 234 235 236 237 236 236 237 237 237 238 238 238 238 239 241 243 246
203 202 206 211 210 208 211 214 214 215 216 214 211 214 216 216 217 217 218 220 222 223 224 224 225 226 227 226 227 227 227 226 226 227 227 229 230 231 232 233 232 232 232 232 231 232 233 233 235 236 237 236 237 236 236 236 236 236 236 237 239 241 244
207 209 211 215 214 210 210 213 213 212 213 208 204 210 215 214 214 215 217 220 222 222 223 224 224 226 226 226 227 227 227 227 227 228 228 229 230 230 231 232 231 231 231 232 232 232 232 233 234 235 236 237 237 236 236 236 236 236 236 236 237 239 242
212 216 218 217 216 212 211 215 214 210 208 206 207 213 216 213 213 216 218 220 221 222 224 224 224 225 225 225 226 226 226 228 228 228 228 229 230 229 229 230 230 230 230 231 232 232 232 233 234 235 236 237 237 237 237 237 236 236 236 235 235 237 239
211 218 221 218 214 211 211 214 211 206 206 208 209 213 214 213 214 216 217 218 220 222 223 223 224 225 225 224 224 225 226 227 228 228 228 229 229 229 229 229 230 230 229 230 232 233 233 234 234 235 236 236 237 237 237 237 236 236 236 235 235 236 238
215 217 218 216 213 211 209 209 209 207 208 209 209 211 213 214 215 215 216 219 220 221 222 222 223 225 225 224 224 225 226 226 227 228 228 228 228 228 228 230 231 230 229 230 232 233 234 235 235 236 236 237 238 238 237 236 236 236 236 235 236 237 239
224 220 217 215 215 213 210 210 212 212 211 211 210 210 212 214 215 215 217 219 219 219 220 221 223 224 225 224 224 224 225 226 227 227 227 227 227 227 228 229 231 232 230 230 232 232 233 234 235 236 237 238 240 240 239 236 236 236 236 237 238 239 242
233 228 223 220 218 215 211 211 212 212 211 211 210 210 212 214 214 214 216 218 218 219 220 220 222 223 224 224 224 224 225 226 226 227 227 226 227 227 228 229 231 232 231 231 232 232 232 233 235 237 239 240 241 242 240 237 236 236 235 236 239 240 243
233 229 229 225 220 217 213 211 211 211 211 211 210 210 212 213 213 214 216 217 216 217 219 220 221 222 223 223 223 225 225 225 226 227 227 227 227 228 229 230 231 231 231 231 231 231 232 233 236 238 239 240 242 242 241 238 236 236 235 235 237 240 243
242 229 225 223 221 218 216 214 212 211 211 211 210 210 211 211 210 212 215 216 215 215 218 220 221 222 222 222 223 224 224 225 226 227 228 229 228 228 229 230 231 231 231 230 230 230 231 232 235 237 238 240 241 241 241 239 237 235 234 235 236 239 243
267 248 229 222 223 222 219 218 215 213 212 211 210 210 210 210 210 212 215 216 215 215 218 220 221 221 221 222 222 223 224 225 226 227 227 228 228 228 229 230 230 230 230 230 229 229 229 230 232 235 237 238 240 240 240 239 237 235 235 236 238 240 244
278 268 253 241 235 230 225 221 216 213 211 209 210 211 211 211 212 213 214 214 214 215 217 220 221 220 220 221 222 223 223 224 225 226 227 228 228 229 229 230 231 231 230 230 229 229 229 229 230 232 235 237 239 239 239 238 237 236 236 237 238 241 244
280 272 264 255 247 238 230 222 215 212 212 210 210 210 210 211 211 210 210 212 214 214 215 218 220 220 219 221 222 222 222 223 225 226 227 228 228 229 230 230 231 232 231 230 229 229 229 229 229 230 232 236 238 239 240 239 238 237 237 238 238 240 242
279 272 266 260 253 244 234 224 216 215 215 212 210 211 211 210 210 210 211 212 212 212 214 216 218 218 219 220 222 223 222 223 225 226 228 228 229 230 231 232 232 233 232 232 231 232 231 231 230 230 231 234 236 239 240 241 240 239 238 238 238 238 240
282 278 270 261 254 246 237 228 220 216 217 216 213 212 210 207 209 210 209 209 210 210 212 215 216 217 218 220 222 222 222 223 225 227 228 229 229 230 231 232 233 233 234 234 235 235 235 234 234 233 232 233 235 238 240 242 242 241 239 239 239 239 240
290 288 275 260 249 240 233 227 220 215 216 215 210 206 204 204 206 206 205 207 209 209 211 214 215 216 217 219 221 221 222 223 225 226 228 228 229 230 232 233 233 234 234 235 236 237 237 237 237 238 236 236 237 238 239 240 241 241 240 240 240 240 241
300 296 278 257 245 236 226 220 216 214 214 210 203 201 204 204 205 205 205 208 210 209 211 213 215 216 217 218 220 221 221 223 224 225 226 228 229 231 232 233 234 234 235 236 238 239 239 239 240 241 241 239 240 241 241 240 240 240 240 240 241 242 244
304 295 273 251 240 232 222 214 211 210 208 203 199 201 204 203 203 204 203 205 208 209 210 212 214 216 217 218 219 220 221 222 223 224 225 227 229 230 232 233 234 234 235 236 238 239 239 240 240 241 242 241 242 243 242 240 240 239 239 240 241 242 244
311 294 266 244 233 224 216 211 208 206 204 199 197 200 202 201 201 201 201 203 205 206 208 211 214 216 217 218 218 219 220 221 222 223 225 227 229 230 231 233 234 234 235 237 238 239 240 241 242 243 244 244 244 244 243 242 242 240 239 239 240 242 244
327 296 254 231 224 219 212 207 205 203 201 198 197 199 202 201 200 200 201 203 204 205 207 211 215 217 218 219 219 220 220 221 222 224 226 228 230 231 233 234 235 236 237 239 240 241 242 243 244 245 245 246 246 246 245 245 245 243 240 238 239 241 243
345 316 244 212 211 216 211 203 200 199 197 198 199 200 201 200 199 201 202 202 202 205 209 213 216 218 219 220 222 222 222 223 224 225 227 230 231 233 234 235 236 237 238 239 240 241 242 242 243 244 245 245 246 246 246 245 245 244 241 239 239 241 242
3 1 222 197 195 199 201 198 196 196 196 197 199 198 198 199 200 201 201 201 203 207 211 215 216 217 219 221 223 224 225 225 226 227 229 231 232 233 234 234 234 236 237 238 238 239 240 240 241 243 244 245 245 245 244 244 243 244 242 240 239 240 241
29 41 110 177 179 180 186 189 189 192 192 193 196 196 197 199 199 199 200 202 206 210 212 214 214 215 218 220 222 225 226 227 228 229 230 231 231 232 233 233 234 236 237 237 238 239 240 240 241 243 245 246 246 245 244 243 241 239 239 238 237 237 238
54 64 89 142 166 171 176 179 181 184 185 187 192 195 197 197 197 198 200 203 206 209 210 211 213 214 217 219 222 225 226 227 228 228 229 231 231 232 234 234 235 237 237 238 239 240 242 243 243 245 246 247 248 247 246 244 240 237 237 236 235 234 235
64 69 76 101 149 165 170 174 177 179 181 183 188 192 195 196 195 196 199 201 203 204 205 207 209 211 215 218 220 222 223 224 226 227 229 231 231 232 234 235 237 238 239 240 241 242 244 245 245 247 248 248 249 249 246 244 240 237 236 235 234 234 233
61 65 73 90 125 151 162 169 173 177 178 180 185 190 193 195 195 194 195 197 198 197 198 199 201 204 209 212 214 217 218 220 223 225 227 229 231 232 234 236 238 239 240 241 242 243 244 246 247 248 249 250 251 251 249 247 245 241 238 235 234 234 234
61 64 73 87 105 122 139 154 164 171 173 176 181 186 190 195 197 196 194 193 191 189 188 189 192 197 201 205 210 214 216 219 223 225 226 229 232 233 234 236 239 240 241 242 243 243 244 246 247 249 250 251 253 254 254 251 249 246 243 238 235 233 233
60 61 66 77 92 104 117 130 141 153 163 169 175 180 185 191 196 197 195 191 188 188 187 187 191 196 199 203 208 212 216 220 222 224 227 229 230 232 233 236 240 242 242 243 244 244 245 246 247 248 249 251 254 255 255 254 251 247 244 240 235 232 232
58 62 65 70 81 92 101 110 118 128 139 150 160 170 177 183 188 191 192 190 190 191 192 191 192 195 198 201 205 209 214 218 221 224 227 228 228 228 229 231 236 240 242 243 244 244 245 246 247 248 249 250 252 252 252 251 248 245 241 238 235 233 232
57 59 63 65 70 78 86 94 104 113 120 129 141 154 164 171 177 181 184 188 190 191 193 193 193 194 196 199 202 204 208 212 215 219 224 227 229 228 227 228 231 235 239 241 242 243 245 247 248 249 250 251 251 249 249 249 247 243 238 235 232 230 228
59 56 60 63 64 70 76 81 92 104 112 120 132 146 156 164 171 174 178 182 185 187 190 193 194 195 198 200 203 204 205 208 211 214 218 222 226 228 228 229 230 232 236 239 240 240 243 244 246 247 248 249 248 247 248 249 246 236 225 221 220 218 217
67 60 59 63 63 64 66 69 80 94 103 111 124 140 152 160 167 174 178 183 186 187 190 193 195 197 199 202 205 207 208 210 212 213 215 218 222 226 229 231 232 233 236 238 240 240 241 242 242 243 243 243 244 242 240 239 233 220 212 211 210 209 209
72 67 60 64 64 60 59 60 67 79 89 96 109 125 138 147 156 166 174 181 187 191 195 198 200 202 203 204 207 210 213 216 217 218 219 219 220 224 227 230 233 234 235 237 239 240 240 240 239 239 239 239 240 238 232 227 222 215 212 212 211 211 211
Height
1465 1467 1470 1473 1476 1479 1481 1483 1486 1490 1493 1496 1499 1504 1508 1511 1514 1516 1519 1523 1526 1530 1533 1536 1539 1542 1544 1547 1550 1553 1555 1558 1561 1563 1566 1568 1571 1573 1575 1578 1580 1582 1584 1586 1588 1589 1591 1592 1593 1595 1596 1597 1598 1598 1599 1600 1601 1602 1603 1604 1605 1606 1606
1461 1463 1466 1469 1472 1474 1477 1479 1483 1487 1490 1492 1496 1500 1503 1506 1508 1511 1515 1519 1523 1527 1530 1533 1536 1539 1542 1545 1547 1550 1552 1555 1558 1561 1563 1565 1568 1570 1573 1575 1577 1580 1582 1584 1586 1587 1589 1590 1591 1593 1594 1595 1596 1597 1598 1599 1600 1601 1601 1602 1603 1604 1605
1456 1458 1460 1464 1466 1468 1472 1475 1479 1482 1485 1488 1491 1494 1497 1499 1503 1507 1511 1515 1520 1524 1527 1530 1533 1536 1540 1542 1545 1547 1550 1553 1555 1558 1560 1563 1565 1568 1570 1572 1575 1577 1579 1581 1583 1585 1586 1588 1589 1591 1592 1593 1594 1595 1596 1597 1598 1599 1600 1601 1602 1602 1603
1450 1451 1454 1457 1459 1462 1466 1469 1474 1477 1480 1483 1485 1488 1491 1495 1500 1504 1509 1512 1516 1520 1523 1526 1530 1533 1537 1539 1542 1544 1547 1550 1552 1555 1558 1560 1563 1565 1567 1569 1572 1574 1576 1578 1580 1582 1584 1585 1587 1588 1589 1591 1592 1593 1594 1595 1596 1597 1598 1599 1600 1601 1602
1445 1447 1451 1453 1455 1458 1461 1465 1469 1472 1476 1479 1482 1485 1489 1493 1497 1501 1505 1509 1513 1516 1519 1523 1527 1530 1533 1536 1539 1542 1544 1547 1550 1552 1555 1557 1560 1562 1564 1567 1569 1571 1573 1576 1578 1579 1581 1583 1584 1586 1587 1588 1590 1591 1592 1593 1594 1595 1596 1597 1598 1599 1600
1441 1444 1447 1448 1451 1454 1457 1460 1463 1466 1470 1474 1477 1481 1485 1490 1494 1497 1501 1505 1509 1513 1516 1520 1523 1526 1529 1533 1536 1539 1541 1544 1547 1550 1552 1554 1557 1559 1561 1564 1566 1569 1571 1573 1575 1576 1578 1580 1582 1583 1585 1586 1587 1588 1589 1590 1592 1593 1594 1595 1596 1597 1598
1436 1439 1441 1443 1446 1449 1451 1454 1458 1462 1466 1470 1475 1478 1482 1487 1491 1495 1499 1502 1505 1509 1512 1515 1519 1522 1525 1529 1532 1535 1538 1541 1544 1547 1549 1552 1554 1556 1558 1561 1563 1566 1568 1570 1572 1574 1575 1577 1579 1581 1582 1583 1585 1586 1587 1588 1589 1591 1592 1593 1594 1595 1596
1432 1433 1436 1438 1441 1444 1446 1449 1453 1457 1462 1467 1473 1475 1478 1483 1486 1490 1494 1497 1501 1504 1507 1511 1514 1518 1521 1525 1528 1531 1535 1538 1541 1544 1546 1549 1551 1553 1555 1558 1560 1563 1565 1567 1569 1571 1573 1575 1576 1578 1579 1581 1582 1583 1585 1586 1587 1588 1589 1591 1592 1593 1594
1427 1429 1431 1433 1436 1440 1443 1445 1449 1453 1458 1462 1466 1468 1472 1477 1480 1484 1488 1491 1496 1499 1502 1507 1510 1514 1517 1521 1525 1528 1532 1535 1537 1540 1543 1546 1548 1550 1553 1555 1557 1560 1562 1564 1566 1568 1570 1572 1574 1575 1577 1578 1579 1580 1582 1583 1585 1586 1587 1588 1590 1591 1592
1423 1425 1427 1430 1433 1437 1440 1443 1447 1451 1454 1457 1460 1464 1468 1472 1475 1479 1483 1487 1491 1494 1498 1503 1507 1510 1513 1517 1521 1525 1528 1531 1534 1537 1539 1542 1545 1547 1550 1552 1554 1556 1559 1561 1563 1565 1567 1569 1571 1572 1574 1575 1576 1578 1579 1581 1582 1584 1585 1586 1588 1589 1590
1421 1422 1423 1427 1430 1433 1437 1440 1443 1446 1449 1452 1457 1461 1464 1467 1470 1474 1478 1481 1485 1490 1494 1499 1503 1506 1509 1514 1518 1521 1524 1527 1530 1533 1535 1538 1541 1544 1547 1549 1551 1553 1555 1558 1560 1562 1564 1566 1568 1569 1570 1572 1573 1575 1576 1578 1580 1581 1582 1584 1585 1586 1588
1421 1421 1423 1425 1426 1429 1432 1435 1438 1441 1445 1448 1453 1456 1459 1463 1466 1469 1473 1476 1481 1486 1490 1494 1498 1502 1506 1510 1514 1517 1520 1523 1526 1529 1531 1534 1537 1540 1543 1546 1548 1550 1552 1554 1557 1559 1561 1562 1564 1566 1567 1569 1570 1572 1574 1575 1577 1578 1579 1581 1582 1584 1585
1419 1420 1422 1424 1425 1428 1430 1432 1435 1437 1440 1444 1447 1451 1454 1457 1461 1465 1468 1472 1477 1482 1486 1490 1494 1497 1502 1506 1509 1512 1515 1519 1522 1525 1528 1531 1534 1537 1540 1542 1544 1547 1549 1551 1553 1555 1557 1559 1560 1562 1564 1566 1567 1569 1570 1572 1574 1575 1576 1578 1579 1581 1582
1415 1417 1419 1421 1424 1426 1429 1431 1432 1434 1437 1440 1443 1447 1450 1454 1458 1461 1464 1468 1473 1478 1482 1485 1489 1493 1497 1501 1505 1508 1511 1515 1518 1521 1525 1528 1531 1534 1536 1538 1541 1543 1546 1548 1550 1552 1554 1555 1557 1559 1561 1562 1564 1565 1567 1569 1570 1571 1573 1575 1576 1578 1579
1414 1415 1415 1417 1419 1421 1424 1426 1429 1431 1434 1436 1440 1443 1446 1451 1455 1458 1461 1465 1470 1474 1477 1481 1485 1489 1493 1497 1500 1503 1507 1511 1515 1518 1521 1524 1527 1530 1533 1535 1538 1540 1542 1544 1546 1548 1550 1552 1554 1555 1557 1559 1560 1562 1563 1565 1566 1568 1569 1571 1573 1575 1576
1411 1412 1413 1414 1414 1416 1418 1420 1423 1426 1429 1433 1436 1439 1442 1446 1450 1453 1456 1460 1465 1469 1473 1477 1480 1485 1489 1492 1495 1500 1504 1508 1511 1514 1517 1520 1523 1526 1529 1532 1534 1536 1538 1540 1542 1544 1546 1548 1550 1551 1553 1555 1556 1558 1559 1560 1562 1564 1566 1568 1570 1572 1573
1407 1407 1409 1410 1411 1412 1413 1414 1417 1421 1425 1428 1431 1434 1437 1441 1444 1448 1452 1457 1460 1465 1469 1473 1476 1481 1485 1488 1492 1496 1500 1504 1507 1510 1513 1517 1520 1522 1525 1528 1530 1532 1534 1536 1538 1540 1542 1544 1546 1547 1549 1551 1552 1554 1555 1556 1558 1560 1563 1565 1567 1569 1570
1405 1404 1404 1404 1406 1407 1408 1409 1413 1416 1420 1423 1426 1430 1433 1436 1441 1445 1449 1453 1456 1461 1465 1469 1473 1477 1481 1484 1488 1492 1496 1500 1503 1506 1509 1513 1516 1519 1522 1524 1527 1528 1530 1532 1534 1536 1538 1540 1541 1543 1545 1547 1548 1550 1551 1553 1555 1557 1559 1561 1563 1565 1567
1403 1401 1400 1399 1400 1402 1404 1405 1407 1410 1414 1417 1421 1425 1427 1432 1437 1440 1444 1448 1453 1458 1462 1465 1470 1474 1478 1481 1485 1488 1492 1496 1499 1502 1506 1509 1512 1515 1518 1520 1522 1524 1526 1529 1531 1533 1534 1536 1537 1539 1541 1543 1544 1546 1547 1549 1551 1554 1556 1558 1560 1562 1563
1401 1398 1396 1395 1395 1397 1399 1401 1403 1406 1409 1412 1416 1420 1424 1430 1434 1438 1442 1447 1451 1455 1459 1463 1467 1471 1474 1478 1481 1485 1489 1493 1496 1499 1502 1505 1509 1511 1514 1516 1518 1520 1523 1525 1527 1528 1530 1532 1534 1535 1537 1539 1540 1542 1544 1545 1547 1550 1552 1554 1556 1558 1559
1397 1394 1391 1391 1391 1392 1393 1396 1400 1403 1406 1409 1414 1419 1424 1429 1434 1438 1441 1445 1448 1453 1457 1460 1464 1468 1471 1475 1478 1482 1486 1489 1492 1495 1498 1502 1505 1507 1510 1512 1514 1517 1519 1521 1523 1524 1526 1529 1530 1531 1533 1535 1536 1538 1539 1541 1543 1546 1548 1550 1552 1554 1555
1393 1390 1388 1387 1388 1388 1389 1392 1395 1400 1403 1407 1412 1417 1421 1426 1431 1435 1438 1442 1446 1451 1454 1458 1462 1465 1469 1472 1475 1478 1482 1485 1488 1492 1495 1498 1501 1503 1505 1508 1510 1513 1516 1518 1519 1521 1523 1525 1526 1528 1529 1531 1533 1534 1535 1537 1539 1541 1544 1546 1548 1550 1551
1391 1387 1385 1385 1386 1386 1388 1391 1394 1399 1403 1406 1410 1414 1418 1424 1429 1432 1437 1441 1444 1448 1452 1456 1459 1462 1465 1468 1471 1475 1478 1481 1485 1488 1491 1494 1496 1499 1501 1504 1507 1510 1512 1514 1516 1517 1519 1521 1522 1524 1526 1527 1528 1529 1531 1533 1535 1537 1539 1542 1544 1545 1546
1389 1385 1383 1383 1384 1385 1387 1391 1394 1398 1402 1406 1410 1413 1417 1422 1426 1430 1434 1438 1441 1446 1450 1453 1456 1459 1462 1465 1468 1471 1474 1478 1481 1484 1488 1490 1492 1495 1498 1501 1503 1506 1508 1510 1512 1513 1515 1517 1519 1520 1522 1523 1524 1525 1527 1529 1530 1533 1535 1537 1539 1540 1541
1387 1384 1383 1382 1383 1384 1386 1389 1393 1397 1401 1405 1409 1413 1416 1420 1424 1428 1431 1435 1439 1443 1447 1450 1453 1456 1459 1462 1466 1469 1472 1475 1478 1481 1484 1486 1489 1492 1495 1497 1500 1502 1504 1506 1508 1510 1512 1514 1515 1516 1517 1519 1520 1522 1523 1524 1526 1528 1530 1532 1534 1535 1537
1388 1384 1383 1383 1383 1384 1386 1389 1392 1395 1399 1403 1407 1411 1415 1419 1423 1426 1429 1433 1438 1441 1444 1447 1450 1453 1457 1461 1464 1467 1470 1473 1475 1478 1481 1483 1486 1489 1492 1494 1497 1499 1501 1503 1505 1507 1508 1509 1511 1512 1513 1515 1516 1518 1519 1520 1522 1524 1526 1528 1529 1530 1532
1389 1386 1384 1384 1384 1385 1387 1389 1391 1394 1397 1401 1406 1410 1414 1418 1421 1424 1428 1432 1435 1438 1441 1444 1448 1452 1456 1459 1462 1465 1467 1470 1473 1475 1478 1481 1484 1486 1488 1491 1493 1495 1497 1499 1501 1502 1504 1505 1507 1508 1510 1511 1512 1514 1515 1516 1518 1520 1521 1523 1525 1526 1528
1390 1387 1386 1385 1385 1387 1388 1390 1392 1394 1397 1401 1405 1409 1412 1415 1419 1422 1426 1429 1432 1435 1439 1443 1446 1450 1453 1456 1459 1462 1465 1468 1470 1473 1476 1478 1480 1483 1485 1487 1489 1491 1493 1495 1497 1498 1500 1502 1503 1505 1506 1508 1509 1510 1511 1512 1515 1516 1517 1519 1520 1522 1523
1391 1389 1388 1387 1388 1388 1389 1390 1392 1394 1397 1400 1404 1407 1411 1414 1417 1421 1424 1427 1430 1434 1438 1441 1445 1448 1451 1454 1457 1460 1462 1465 1468 1470 1473 1475 1477 1479 1481 1484 1486 1488 1489 1491 1493 1495 1496 1498 1500 1501 1503 1504 1505 1506 1507 1509 1511 1512 1513 1515 1516 1518 1519
1393 1392 1391 1390 1390 1389 1390 1391 1392 1394 1397 1400 1403 1407 1410 1412 1415 1418 1422 1425 1428 1433 1436 1440 1443 1446 1449 1452 1455 1457 1460 1462 1465 1467 1470 1472 1474 1476 1478 1480 1482 1484 1486 1488 1490 1491 1493 1494 1496 1498 1499 1500 1501 1502 1504 1505 1507 1508 1510 1511 1512 1514 1515
1396 1395 1394 1393 1392 1392 1392 1392 1393 1396 1398 1400 1403 1406 1409 1412 1414 1417 1420 1423 1427 1431 1435 1438 1442 1444 1447 1450 1452 1454 1457 1460 1462 1464 1466 1469 1471 1472 1474 1476 1478 1480 1482 1484 1486 1487 1489 1491 1492 1494 1495 1496 1497 1498 1500 1502 1503 1504 1506 1507 1508 1510 1511
1399 1398 1397 1396 1395 1395 1395 1394 1396 1397 1399 1401 1404 1406 1410 1413 1415 1417 1419 1423 1426 1430 1433 1437 1439 1442 1445 1447 1449 1452 1455 1457 1459 1461 1463 1465 1467 1469 1471 1473 1475 1476 1478 1480 1481 1483 1485 1487 1488 1490 1491 1492 1493 1495 1496 1498 1499 1500 1501 1503 1504 1505 1506
1402 1401 1400 1400 1399 1399 1398 1398 1398 1399 1401 1402 1404 1407 1410 1413 1416 1419 1420 1423 1426 1428 1431 1434 1437 1440 1443 1445 1447 1450 1452 1454 1456 1458 1460 1462 1464 1466 1468 1469 1471 1472 1474 1475 1477 1479 1481 1483 1484 1485 1487 1488 1490 1491 1492 1493 1494 1496 1497 1498 1499 1501 1502
1405 1405 1404 1403 1403 1402 1402 1401 1402 1403 1404 1405 1406 1409 1411 1413 1416 1419 1421 1423 1425 1427 1430 1432 1435 1438 1441 1443 1446 1448 1449 1451 1453 1455 1457 1459 1460 1462 1464 1465 1467 1468 1469 1471 1473 1475 1477 1478 1480 1481 1483 1485 1486 1487 1488 1489 1490 1491 1493 1494 1495 1497 1498
1409 1408 1407 1407 1406 1405 1405 1405 1406 1406 1407 1408 1409 1411 1413 1415 1417 1420 1421 1423 1425 1427 1429 1431 1434 1436 1438 1441 1443 1446 1447 1449 1451 1453 1454 1456 1457 1458 1460 1461 1462 1464 1465 1467 1469 1471 1473 1475 1476 1478 1479 1481 1482 1483 1484 1484 1486 1487 1489 1491 1492 1493 1494
1412 1411 1411 1410 1410 1409 1408 1408 1408 1409 1409 1410 1411 1413 1414 1416 1418 1420 1422 1424 1425 1427 1429 1431 1432 1434 1436 1438 1441 1443 1445 1447 1449 1450 1452 1453 1454 1455 1456 1457 1459 1460 1462 1464 1465 1467 1470 1471 1473 1475 1476 1477 1478 1479 1480 1481 1483 1484 1486 1487 1488 1489 1491
1414 1414 1414 1414 1413 1413 1412 1412 1411 1411 1411 1412 1413 1414 1416 1417 1419 1421 1423 1424 1425 1427 1429 1430 1432 1433 1435 1437 1439 1440 1442 1445 1446 1448 1449 1450 1451 1452 1453 1454 1455 1457 1459 1460 1462 1464 1466 1468 1470 1472 1473 1474 1475 1476 1477 1478 1480 1481 1483 1484 1485 1487 1488
1416 1416 1417 1416 1416 1416 1416 1415 1415 1414 1414 1414 1415 1416 1417 1418 1419 1421 1423 1424 1425 1427 1428 1430 1431 1432 1434 1435 1437 1438 1440 1442 1444 1445 1447 1448 1449 1450 1450 1451 1452 1454 1455 1457 1459 1461 1463 1465 1467 1468 1470 1471 1472 1473 1475 1476 1477 1479 1480 1481 1482 1484 1485